Regional Weather Roundup
Issued by NWS Upton, NY

Current Version | Previous Version | Graphics & Text | Print | Product List | Glossary Off
Versions: 1 2 3 4 5 6 7 8 9 10 11 12 13 14 15 16 17 18 19 20 21 22 23 24 25 26 27

000
ASUS41 KOKX 180905
RWROKX

Regional Weather Roundup
National Weather Service New York NY
500 AM EDT WED APR 18 2018

Note: "FAIR" indicates few or no clouds below 12,000 feet with no
significant weather and/or obstructions to visibility.

NYZ071-072-176-178-NJZ106-104-181000-
New York City Metro Area

CITY           SKY/WX    TMP DP  RH WIND       PRES   REMARKS
Central Park   CLOUDY    38  23  55 VRB5      29.78F WCI  34
Bronx Bot Gard   N/A     37  23  56 W21       29.78R WCI  27
Bronx Lehman C   N/A     37  25  60 W7          N/A  WCI  32
LaGuardia Arpt CLOUDY    39  23  52 W12       29.77S WCI  32
Queens College   N/A     37  25  60 W13         N/A  WCI  29
Kennedy Intl   MOCLDY    38  23  55 W14G24    29.78F WCI  30
Breezy Point     N/A     37 N/A N/A W13G20      N/A  WCI  29
Brooklyn Coll    N/A     37  23  56 W12         N/A  WCI  30
Staten Island    N/A     37  25  60 W8          N/A  WCI  31
Newark/Liberty CLOUDY    38  22  52 W13       29.78S WCI  30
Teterboro      CLOUDY    38  24  57 W8        29.76S WCI  32
$$

NYZ177-179-078>081-181000-
Long Island New York

CITY           SKY/WX    TMP DP  RH WIND       PRES   REMARKS
Jones Beach      N/A     37 N/A N/A W16G24      N/A  WCI  28
Wantagh          N/A     37  25  60 W14         N/A  WCI  29
Hempstead        N/A     39  27  60 W2        29.80R
Matinecock Pt    N/A     39 N/A N/A W21         N/A  WCI  29
Farmingdale    CLOUDY    37  21  52 W10       29.77R WCI  30
MacArthur/ISP  CLOUDY    37  22  54 W13       29.75S WCI  29
Stony Brook      N/A     37  23  56 NW10        N/A  WCI  30
Shirley        MOCLDY    35  24  64 W7        29.75S WCI  29
Mt Sinai Harb    N/A    N/A N/A N/A W10G17      N/A
Westhampton    FAIR      34  22  61 W9        29.76R WCI  27
East Hampton   FAIR      35  22  60 W8G18     29.73S WCI  28
Southold         N/A     36  25  64 W10         N/A  WCI  28
Montauk          N/A     39  28  64 W14G22    29.72S WCI  31
$$

NYZ052-065-067-181000-
Hudson Valley

CITY           SKY/WX    TMP DP  RH WIND       PRES   REMARKS
White Plains   MOCLDY    35  20  54 W13       29.73S WCI  26
Larchmont Harb   N/A     37 N/A N/A SW12        N/A  WCI  30
Croton On Huds   N/A     37 N/A N/A SW12        N/A  WCI  30
Somers           N/A     32  25  74 W7          N/A  WCI  26
Brewster         N/A     32  25  74 W2          N/A
Newburgh       CLOUDY    34  27  75 W7        29.74S WCI  28
Montgomery     CLOUDY    34  25  69 SW7       29.72F WCI  28
Otisville        N/A     32  27  80 SW6         N/A  WCI  26
Warwick          N/A     34  25  69 W8          N/A  WCI  27
Suffern          N/A     34  23  64 W6          N/A  WCI  29
Poughkeepsie   CLOUDY    35  22  58 SW10      29.73S WCI  27
Albany         CLOUDY    35  23  61 W9        29.68F WCI  28
$$

NJZ001-105-106-008-010-013-015-019>022-104-181000-
New Jersey

CITY           SKY/WX    TMP DP  RH WIND       PRES   REMARKS
Newark/Liberty CLOUDY    38  22  52 W13       29.78S WCI  30
Teterboro      CLOUDY    38  24  57 W8        29.76S WCI  32
Caldwell       CLOUDY    37  22  54 W6        29.77S WCI  32
Somerville     CLOUDY    37  24  59 W8        29.77F WCI  31
Linden         CLOUDY    38  22  53 W7        29.79S WCI  32
Perth Amboy      N/A     37 N/A N/A W13         N/A  WCI  29
Sussex         CLOUDY    35  24  64 SW7       29.74S WCI  29
Andover          N/A     34  23  64 CALM      29.75F
Trenton        CLOUDY    37  24  59 W7        29.80S WCI  32
Millville      FAIR      33  23  66 W6        29.86R WCI  28
Atlantic City  FAIR      37  26  64 SW6       29.85R WCI  32
Wrightstown    CLOUDY    37  24  58 W8        29.80  WCI  31
Toms River     CLOUDY    34  25  69 SW7       29.83S WCI  28
Belmar         CLOUDY    37  24  59 W12       29.81S WCI  29
$$

PAZ047>061-062-071-181000-
Eastern Pennsylvania

CITY           SKY/WX    TMP DP  RH WIND       PRES   REMARKS
Philadelphia   MOCLDY    37  23  56 W13       29.85S WCI  29
Allentown      CLOUDY    37  23  56 W10       29.79S WCI  30
Scranton       CLOUDY    33  25  72 SW8       29.74S WCI  26
$$

CTZ002-004>006-009-010-012-RIZ004-006-007-MAZ004-011-015-181000-
Southern New England

 In CT

CITY           SKY/WX    TMP DP  RH WIND       PRES   REMARKS
Bradley Intl   MOCLDY    33  24  69 W9        29.69R WCI  25
Hartford       FAIR      35  27  72 W5        29.71S WCI  31
Danbury        MOCLDY    32  22  66 W7        29.73S WCI  26
Wtrbury/Oxford CLOUDY    31  23  72 W6        29.70R WCI  25
Norwalk Harbor   N/A     36 N/A N/A W14         N/A  WCI  27
Bridgeport     FAIR      35  23  61 W9        29.74S WCI  28
Meriden        CLOUDY    33  24  69 CALM      29.72R
New Haven      FAIR      36  24  62 W8        29.73S WCI  30
Chester        FAIR      32  27  80 W6        29.70S WCI  26
Groton         FAIR      35  27  72 W12       29.70S WCI  27
Willimantic    FAIR      34  29  82 W8        29.69R WCI  27

 In RI

CITY           SKY/WX    TMP DP  RH WIND       PRES   REMARKS
Providence     FAIR      34  32  92 SW8       29.68R WCI  27
Block Island   FAIR      37  29  72 W20G29    29.71R WCI  27
Westerly       FAIR      36  30  79 W9        29.71R WCI  29

In MA

CITY           SKY/WX    TMP DP  RH WIND       PRES   REMARKS
Boston         FAIR      37  23  56 W12       29.62S WCI  29
Worcester      CLOUDY    31  19  61 W14G23    29.60S WCI  21
Westfield      CLOUDY    35  23  61 W10       29.67S WCI  27
Provincetown   FAIR      37  28  70 W17       29.64R WCI  27
Nantucket      CLOUDY    37  34  89 W12       29.67R WCI  29
$$

ANZ330-335-338-340-345-350-353-355-181000-
Coastal Marine Observations


STATION/POSITION TIME  SKY/WX   TEMP    WIND        PRES    VSBY  WAVE
                                AIR SEA DIR/SP/G                  HT/PER
                 (UTC)          (F)     (DEG/KT/KT) (MB)    (MI)  (FT/S)
NY Harb Entrance 0850            38 44  270/ 19/ 25 1009.0          4/ 9
20 S Fire Island 0850            39 42  280/ 19/ 25 1008.1          6/ 5
23 SSW Montauk P 0850            38 42  270/ 21/ 25 1006.9          7/ 9
15 E Barnegat Li 0830               44                N/A           5/ 9
Hudson Canyon    0850            41 44  290/ 23/ 27 1008.4          8/ 6
Kings Point      0830            39 44  310/ 12/ 15 1008.9
Execution Rocks  NOT AVBL
Western LI Sound NOT AVBL
Central LI Sound 0845            38     270/ 19/ 23   N/A           4
Robbins Reef     0836            38     270/ 19/ 22 1008.9
$$


>>>>>>>>>>>>>>>>>>>>>>>>>>>> KEY <<<<<<<<<<<<<<<<<<<<<<<<<<<
>                                                          <
>     SKY/WX - Sky Condition/Present Weather               <
>     TMP    - Temperature in Fahrenheit                   <
>     DP     - Dew Point in Fahrenheit                     <
>     RH     - Relative Humidity in Percent                <
>     WIND   - Direction (from) and Speed in MPH           <
>     PRES   - Mean Sea Level Pressure (inches of Hg)      <
>     WCI    - Wind Chill Index                            <
>     VSB    - Visibility in Miles                         <
>     HX     - Heat Index                                  <
>     TC     - Temperature in Celsius                      <
>     VRB    - Varibale Wind Direction                     <
>                                                          <
>>>>>>>>>>>>>>>>>>>>>>>>>>>> KEY <<<<<<<<<<<<<<<<<<<<<<<<<<<




USA.gov is the U.S. government's official web portal to all federal, state and local government web resources and services.